Location: Asheville, NC
(35.6000°N, 82.5500°W)
Time: 20:38:15
(UTC-05:00)

OTV 5 (USA 277) - Pass Details

Date: 12 October 2017
Orbit: 404 x 417 km, 43.0° (Epoch: 07 September)

Event Time Altitude Azimuth Distance (km) Brightness Sun altitude
Rises 19:35:52 0° 257° (WSW) 2,343 ? -8.4°
Reaches altitude 10° 19:38:02 10° 263° (W) 1,483 ? -8.9°
Maximum altitude 19:41:17 47° 339° (NNW) 558 ? -9.5°
Enters shadow 19:44:25 11° 54° (NE) 1,436 ? -10.2°
